www.pogodaiklimat.ru

Погода и климат >> Архив погоды >> Аргентина >> Вилла Долорес


ПОГОДА в Вилла Долорес

  • Прогноз погоды в Вилла Долорес
  • Монитор погоды в Вилла Долорес

АРХИВ ПОГОДЫ в Вилла Долорес

Время (UTC), дата Ветер
(напр.,м/с)
 
Видим.   Явления Облачность Т
(С)
Тd
(С)
f
(%)
Тe
(С)
Тes
(С)
Комфортность P
(гПа)
Po
(гПа)
Тmin
(С)
Tmax
(С)
R
(мм)
R24
(мм)
S
(см)
18 15.04 Ю 3 30 км {гроза} 8/8 1200 м
[Sc]
+21.4 +15.9 71 +25 +27 комфорт 1017.3 952.5 4
21 15.04 ЮВ 2 30 км 5/5 1200 м
[Cu Sc]
+22.4 +16.0 67 +27 +27 душно 1018.1 953.2
00 16.04 штиль 0 30 км 6/6 1200 м
[Sc]
+18.4 +15.8 85 +19 +19 1020.4 954.8 +12.4 +22.6
03 16.04 штиль 0 30 км 6/6 900 м
[Sc]
+16.7 +13.4 81 +17 +17 1022.0 956.4
06 16.04 штиль 0 20 км дым 10/10 600 м
[Sc]
+15.2 +13.8 91 +15 +15 1021.7 956.2
09 16.04 В 1 20 км дым 5/5 900 м
[Sc]
+14.6 +13.2 91 +15 +15 1021.0 955.7
12 16.04 Ю 2 30 км 8/8 600 м
[Sc]
+14.6 +12.8 89 +14 +15 1021.5 955.7 +12.4 +18.4 4
15 16.04 З 2 30 км 3/3 900 м
[Cu hum]
+20.0 +13.2 65 +23 +30 комфорт 1019.8 954.5
18 16.04 СЗ 3 30 км ясно +24.6 +13.7 51 +27 +35 жарко 1014.9 950.2
21 16.04 СЗ 2 30 км ясно +24.2 +13.6 52 +26 +27 жарко 1013.3 948.6
00 17.04 В 1 30 км ясно +16.6 +14.2 86 +17 +17 1014.9 949.4 +14.6 +25.0
03 17.04 С 3 30 км 4/0
[Cs]
+16.4 +12.5 78 +16 +16 1014.8 949.8
06 17.04 штиль 0 30 км 3/0
[Ci]
+13.4 +12.0 91 +13 +13 1013.9 949.2
09 17.04 В 3 30 км ясно +12.2 +10.7 91 +11 +11 1014.0 949.0
12 17.04 В 2 20 км дым 9/9 1200 м
[Sc]
+15.4 +12.6 83 +16 +16 1015.2 949.7 +11.6 +17.0
15 17.04 ЮЗ 3 20 км дым 9/9 1200 м
[Sc]
+20.2 +14.2 68 +23 +24 комфорт 1015.4 950.4
18 17.04 Ю 1 30 км 9/9 600 м
[Sc]
+22.0 +15.3 66 +26 +27 душно 1014.8 949.7
21 17.04 ЮЗ 2 30 км 9/9 900 м
[Sc]
+22.5 +15.2 63 +26 +26 жарко 1012.5 947.6
00 18.04 З 1 30 км 9/9 900 м
[Sc]
+20.2 +16.0 77 +24 +24 комфорт 1012.8 947.8 +15.4 +23.0
03 18.04 штиль 0 30 км 10/10 1200 м
[Sc]
+19.4 +16.2 82 +21 +21 комфорт 1013.1 948.6
06 18.04 В 2 30 км 4/4 1200 м
[Sc]
+15.8 +14.8 94 +16 +16 1012.7 948.0
09 18.04 СВ 2 30 км 4/4 1200 м
[Sc]
+16.4 +15.1 92 +16 +16 1012.1 947.6
12 18.04 В 2 30 км 8/4 1200 м
[Sc Ci fib]
+17.5 +14.1 80 +18 +19 1012.6 948.0 +14.6 +20.2
15 18.04 СЗ 2 30 км 9/4 1200 м
[Cu Sc Cs]
+23.6 +15.2 59 +26 +31 жарко 1011.5 947.4
18 18.04 ЮВ 2 30 км 9/8 1200 м
[Cu Sc Cs]
+25.1 +15.3 55 +28 +30 жарко 1008.2 944.1
21 18.04 Ю 3 30 км 9/8 1200 м
[Cu Sc Cs]
+24.9 +15.6 56 +28 +28 жарко 1007.6 943.6
00 19.04 В 2 30 км 8/8 1200 м
[Sc]
+21.0 +16.5 75 +25 +25 комфорт 1009.8 945.3 +17.5 +26.1
03 19.04 штиль 0 30 км 9/9 1200 м
[Sc]
+20.6 +17.1 80 +24 +24 комфорт 1010.6 946.6
06 19.04 ЮВ 3 30 км 8/1 1200 м
[Sc Cs]
+17.4 +15.9 91 +17 +17 1010.2 946.1
09 19.04 ЮВ 2 30 км 10/4 1200 м
[Sc Cs]
+15.6 +14.6 94 +15 +15 1040.5 946.2
12 19.04 штиль 0 20 км дым 10/6 1200 м
[Sc Cs]
+16.0 +15.0 94 +16 +16 1011.6 946.9 +14.0 +21.0
15 19.04 штиль 0 20 км дым 9/9 1200 м
[Sc Ac As]
+22.8 +17.0 70 +28 +29 душно 1011.7 947.7
18 19.04 ЮЗ 1 30 км 3/3 1200 м
[Cu hum]
+27.2 +16.0 50 +30 +38 душно 1009.7 946.0
21 19.04 ЮЗ 2 30 км 8/1 1200 м
[Cu hum Ci]
+26.8 +15.3 49 +30 +30 душно 1008.9 944.9
00 20.04 В 2 30 км 8/5 1200 м
[Sc Ac trans]
+20.3 +16.4 78 +24 +24 комфорт 1010.7 946.0 +16.0 +28.0
03 20.04 ЮВ 2 30 км 8/5 1200 м
[Sc Ac trans]
+20.0 +15.4 75 +23 +23 комфорт 1011.3 947.3
06 20.04 В 2 30 км 9/9 1200 м
[Sc]
+18.8 +15.2 80 +21 +21 комфорт 1011.1 947.4
09 20.04 ЮВ 2 30 км 9/9 1200 м
[Sc]
+17.8 +15.1 84 +19 +19 1011.0 947.2
12 20.04 В 1 30 км 9/9 600 м
[Cu Sc]
+18.5 +15.5 83 +21 +21 комфорт 1013.1 948.5 +17.4 +20.3
15 20.04 ЮЗ 1 20 км мгла 9/9 600 м
[Cu Sc]
+24.5 +18.4 69 +29 +30 душно 1012.9 948.9
18 20.04 ЮЗ 2 20 км мгла 6/6 600 м
[Cb calv]
+26.8 +17.0 55 +31 +35 душно 1010.7 946.9
21 20.04 СВ 2 30 км 9/6 600 м
[Cu med, cong Cs]
+26.4 +15.8 52 +30 +30 душно 1011.2 947.3
00 21.04 В 3 20 км слаб. дождь {гроза} туман 10/4 900 м
[Cb cap As op]
+19.6 +17.2 86 +22 +22 комфорт 1012.3 947.7 +18.3 +28.8 0.0
03 21.04 ЮВ 2 30 км в посл. час дождь {гроза} 9/8 300 м
[St Ci fib]
+17.4 +16.6 95 +18 +18 1014.0 949.7
06 21.04 штиль 0 20 км дым {дождь} 10/8 300 м
[St Ac As]
+15.1 +14.2 94 +15 +15 1013.4 949.2 2
09 21.04 ЮВ 4 20 км слаб. морось {гроза} туман 10/8 300 м
[St As op]
+13.6 +12.9 96 +12 +12 1014.2 949.7
12 21.04 В 4 20 км осадки на расстоянии {морось} 10/5 450 м
[Sc As op]
+14.2 +13.9 98 +13 +13 1015.3 950.0 +13.6 +19.6 10
15 21.04 ЮЗ 2 20 км слаб. дождь 10/5 300 м
[St As op]
+16.3 +15.6 96 +17 +18 1015.9 950.5
18 21.04 штиль 0 30 км в посл. час дождь 10/3 450 м
[St As op]
+17.2 +16.6 96 +17 +19 1015.1 949.7 6
21 21.04 СЗ 3 20 км слаб. дождь 10/4 300 м
[Frnb As op]
+16.0 +15.7 98 +15 +16 1015.3 949.6
00 22.04 С 2 8000 м гроза, ливневой дождь 10/10 240 м
[Cb cap]
+14.9 +14.4 97 +15 +15 1016.5 950.6 +14.2 +18.3 3
03 22.04 Ю 1 8000 м слаб. дождь {гроза} туман 10/6 240 м
[St As op]
+14.5 +14.0 97 +15 +15 1016.1 951.3
06 22.04 Ю 2 10 км слаб. дождь {гроза} туман 10/4 300 м
[St As op]
+12.9 +12.2 96 +12 +12 1017.8 952.0 27
09 22.04 Ю 1 10 км слаб. дождь {гроза} туман 10/6 240 м
[St As op]
+12.2 +11.8 97 +12 +12 1017.9 951.8
12 22.04 В 2 30 км {гроза, дождь} 10/8 240 м
[St Ac As]
+12.0 +11.6 97 +11 +11 1019.3 953.0 +11.6 +14.9 4
15 22.04 ЮЗ 1 30 км 10/10 900 м
[Sc]
+15.2 +12.0 81 +16 +16 1019.9 953.8

 

Местоположение метеостанции Вилла Долорес (Аргентина): широта -31.95 долгота -65.13 высота над уровнем моря 569 м.

В архиве по умолчанию представлена погода в Вилла Долорес за последнюю неделю. Архивные данные за месяц целиком и за предыдущие месяцы, начиная с января 2011 года, Вы можете получить, выбрав интересующий диапазон дат из раскрывающегося списка и нажав кнопку "Ввод!".


*Определитесь, кто Вы:
робот инопланетянин человек

Внимание! Время в таблицах - всемирное. Для получения местного времени необходимо прибавить поправку, которая равна -3 ч.

Смотрите также архив погоды в соседних городах и на ближайших метеорологических станциях:

Погода в Кордове (Аргентина) (113 км)
Погода в Пиларе (Аргентина) (122 км)
Погода в Рио-Куарто (Аргентина) (150 км)
Погода в Сан-Луисе (Аргентина) (185 км)
Погода в Вилья Рейнольдс (Аргентина) (199 км)
Погода в Чамикале (Аргентина) (208 км)
Погода в Вилла де Мария дель Рио Секо (Аргентина) (267 км)
Погода в Маркос Хуарес (Аргентина) (292 км)
Погода в Лабоулайе (Аргентина) (293 км)
Погода в Сан-Хуане (Аргентина) (316 км)

Пояснения к столбцам:

Ветер - указаны скорость ветра в м/с - средняя за 10 мин, порывы в срок и между сроками (в фигурных скобках) и направление, откуда дует ветер: С - северный, СВ - северо-восточный, В - восточный, ЮВ - юго-восточный, Ю - южный, ЮЗ - юго-западный, З - западный, СЗ - северо-западный.
Видимость - горизонтальная дальность видимости в метрах или километрах. При видимости от 1 до 10 км при отсутствии осадков обычно наблюдается дымка, при ухудшении видимости до 1 км и менее - туман. В сухую погоду видимость может ухудшаться дымом, пылью или мглою.
Явления - указаны атмосферные явления, наблюдавшиеся в срок или в последний час перед сроком; фигурными скобками обозначены явления, наблюдавшиеся между сроками (за 1-3 часа до срока); квадратными скобками обозначены град или гололедные отложения с указанием их диаметра в мм.
Облачность - указаны через наклонную черту общая и нижняя облачность в баллах и высота нижней границы облаков в метрах; квадратными скобками обозначены формы облаков: Ci - перистые, Cs - перисто-слоистые, Cc - перисто-кучевые, Ac - высококучевые, As - высокослоистые, Sc - слоисто-кучевые, Ns - слоисто-дождевые, Cu - кучевые, Cb - кучево-дождевые. Подробнее классификацию облаков см. в Атласе облаков (PDF).
T - Температура воздуха - температура, измеренная на высоте 2 м над землей.
Td - Температура точки росы - температура, при понижении до которой содержащийся в воздухе водяной пар достигнет насыщения.
f - Относительная влажность воздуха - влажноcть воздуха, измеренная на высоте 2 м над землей.
Te - Эффективная температура - температура, которую ощущает одетый по сезону человек в тени. Характеристика душности погоды. При расчете учитывается влияние влажности воздуха и скорости ветра на теплоощущения человека.
Tes - Эффективная температура на солнце - температура, которую ощущает человек, с поправкой на солнечный нагрев. Характеристика знойности погоды. Зависит от высоты солнца над горизонтом, облачности и скорости ветра. Ночью, в пасмурную погоду, а также при ветре 12 м/с и более поправка равна нулю.
P - Атмосферное давление - приведенное к уровню моря атмосферное давление.
Po - Атмосферное давление - измеренное на уровне метеостанции атмосферное давление.
Tmin - Минимальная температура - минимум температуры воздуха на высоте 2 м над землей.
Tmax - Максимальная температура - максимум температуры воздуха на высоте 2 м над землей.
R - Количество осадков - Количество выпавших осадков за период времени, мм. При наведении курсора мыши на число - период времени, за который выпало указанное количество осадков.
R24 - Количество осадков - Количество выпавших осадков за 24 часа, мм.
S - Снежный покров - Высота снежного покрова, см. При наведении курсора мыши на число - состояние снежного покрова и степень покрытия местности в баллах.